Time,TemperatureF,DewpointF,PressureIn,WindDirection,WindDirectionDegrees,WindSpeedMPH,WindSpeedGustMPH,Humidity,HourlyPrecipIn,Conditions,Clouds,dailyrainin,SolarRadiationWatts/m^2,SoftwareType,DateUTC
2013-07-23 00:00:00,75.4,66.2,29.59,NNW,347,8.0,8.0,73,0.00,,---,0.00,0.00,VWS V14.01,2013-07-23 05:00:00,
2013-07-23 00:03:00,75.3,66.4,29.59,North,356,2.0,8.0,74,0.00,,---,0.00,0.00,VWS V14.01,2013-07-23 05:03:00,
2013-07-23 00:05:00,75.1,66.2,29.59,North,0,3.0,8.0,74,0.00,,---,0.00,0.00,VWS V14.01,2013-07-23 05:05:00,
2013-07-23 00:08:00,75.1,66.6,29.59,North,0,6.0,6.0,75,0.00,,---,0.00,0.00,VWS V14.01,2013-07-23 05:08:00,
2013-07-23 00:10:00,74.9,66.4,29.59,NNW,346,5.0,6.0,75,0.00,,---,0.00,0.00,VWS V14.01,2013-07-23 05:10:00,
2013-07-23 00:13:00,74.7,66.3,29.59,North,0,6.0,7.0,75,0.00,,---,0.00,0.00,VWS V14.01,2013-07-23 05:13:00,
2013-07-23 00:15:00,74.7,66.3,29.58,North,0,4.0,7.0,75,0.00,,---,0.00,0.00,VWS V14.01,2013-07-23 05:15:00,
2013-07-23 00:18:00,74.7,66.3,29.58,North,0,5.0,7.0,75,0.00,,---,0.00,0.00,VWS V14.01,2013-07-23 05:18:00,
2013-07-23 00:20:00,74.7,66.3,29.58,North,356,2.0,7.0,75,0.00,,---,0.00,0.00,VWS V14.01,2013-07-23 05:20:00,
2013-07-23 00:23:00,74.7,66.3,29.58,North,0,3.0,5.0,75,0.00,,---,0.00,0.00,VWS V14.01,2013-07-23 05:23:00,
2013-07-23 00:25:00,74.7,66.3,29.58,North,0,3.0,5.0,75,0.00,,---,0.00,0.00,VWS V14.01,2013-07-23 05:25:00,
2013-07-23 00:28:00,74.7,66.6,29.58,NNW,346,5.0,6.0,76,0.00,,---,0.00,0.00,VWS V14.01,2013-07-23 05:28:00,
2013-07-23 00:30:00,74.7,66.6,29.58,North,359,3.0,6.0,76,0.00,,---,0.00,0.00,VWS V14.01,2013-07-23 05:30:00,
2013-07-23 00:33:00,74.6,66.9,29.58,North,356,5.0,6.0,77,0.00,,---,0.00,0.00,VWS V14.01,2013-07-23 05:33:00,
2013-07-23 00:35:00,74.6,66.9,29.58,North,356,3.0,6.0,77,0.00,,---,0.00,0.00,VWS V14.01,2013-07-23 05:35:00,
2013-07-23 00:38:00,74.4,66.7,29.58,North,354,3.0,5.0,77,0.00,,---,0.00,0.00,VWS V14.01,2013-07-23 05:38:00,
2013-07-23 00:40:00,74.4,66.7,29.58,North,349,5.0,5.0,77,0.00,,---,0.00,0.00,VWS V14.01,2013-07-23 05:40:00,
2013-07-23 00:44:00,74.2,66.5,29.58,North,356,2.0,5.0,77,0.00,,---,0.00,0.00,VWS V14.01,2013-07-23 05:44:00,
2013-07-23 00:45:00,74.2,66.5,29.59,North,0,0.0,5.0,77,0.00,,---,0.00,0.00,VWS V14.01,2013-07-23 05:45:00,
2013-07-23 00:49:00,74.0,66.7,29.59,North,350,0.0,1.0,78,0.00,,---,0.00,0.00,VWS V14.01,2013-07-23 05:49:00,
2013-07-23 00:50:00,74.0,66.7,29.59,North,0,0.0,1.0,78,0.00,,---,0.00,0.00,VWS V14.01,2013-07-23 05:50:00,
2013-07-23 00:54:00,73.9,66.6,29.59,North,0,0.0,0.0,78,0.00,,---,0.00,0.00,VWS V14.01,2013-07-23 05:54:00,
2013-07-23 00:55:00,73.9,66.6,29.59,North,0,2.0,2.0,78,0.00,,---,0.00,0.00,VWS V14.01,2013-07-23 05:55:00,
2013-07-23 00:59:00,73.9,67.0,29.59,North,352,2.0,4.0,79,0.00,,---,0.00,0.00,VWS V14.01,2013-07-23 05:59:00,
2013-07-23 01:00:00,73.9,67.0,29.60,North,350,4.0,4.0,79,0.00,,---,0.00,0.00,VWS V14.01,2013-07-23 06:00:00,
2013-07-23 01:04:00,73.9,66.6,29.60,North,353,1.0,5.0,78,0.00,,---,0.00,0.00,VWS V14.01,2013-07-23 06:04:00,
2013-07-23 01:05:00,73.9,66.6,29.60,North,352,2.0,5.0,78,0.00,,---,0.00,0.00,VWS V14.01,2013-07-23 06:05:00,
2013-07-23 01:09:00,73.5,66.6,29.60,North,350,3.0,3.0,79,0.00,,---,0.00,0.00,VWS V14.01,2013-07-23 06:09:00,
2013-07-23 01:10:00,73.5,66.6,29.60,North,0,3.0,3.0,79,0.00,,---,0.00,0.00,VWS V14.01,2013-07-23 06:10:00,
2013-07-23 01:14:00,73.3,66.4,29.60,NNW,346,1.0,3.0,79,0.00,,---,0.00,0.00,VWS V14.01,2013-07-23 06:14:00,
2013-07-23 01:15:00,73.5,66.6,29.58,North,352,1.0,3.0,79,0.00,,---,0.00,0.00,VWS V14.01,2013-07-23 06:15:00,
2013-07-23 01:19:00,73.5,66.2,29.58,North,354,0.0,1.0,78,0.00,,---,0.00,0.00,VWS V14.01,2013-07-23 06:19:00,
2013-07-23 01:20:00,73.5,66.2,29.58,North,0,0.0,1.0,78,0.00,,---,0.00,0.00,VWS V14.01,2013-07-23 06:20:00,
2013-07-23 01:24:00,73.3,66.0,29.58,NNW,346,0.0,0.0,78,0.00,,---,0.00,0.00,VWS V14.01,2013-07-23 06:24:00,
2013-07-23 01:25:00,73.3,66.0,29.58,North,357,0.0,0.0,78,0.00,,---,0.00,0.00,VWS V14.01,2013-07-23 06:25:00,
2013-07-23 01:29:00,73.2,65.9,29.58,North,352,0.0,0.0,78,0.00,,---,0.00,0.00,VWS V14.01,2013-07-23 06:29:00,
2013-07-23 01:30:00,73.0,65.7,29.58,North,357,0.0,0.0,78,0.00,,---,0.00,0.00,VWS V14.01,2013-07-23 06:30:00,
2013-07-23 01:34:00,72.8,66.3,29.58,North,0,0.0,0.0,80,0.00,,---,0.00,0.00,VWS V14.01,2013-07-23 06:34:00,
2013-07-23 01:35:00,72.8,66.3,29.58,NNW,344,0.0,0.0,80,0.00,,---,0.00,0.00,VWS V14.01,2013-07-23 06:35:00,
2013-07-23 01:39:00,72.8,66.3,29.58,North,0,0.0,0.0,80,0.00,,---,0.00,0.00,VWS V14.01,2013-07-23 06:39:00,
2013-07-23 01:40:00,72.8,66.3,29.58,North,0,0.0,0.0,80,0.00,,---,0.00,0.00,VWS V14.01,2013-07-23 06:40:00,
2013-07-23 01:44:00,72.7,66.2,29.59,North,359,0.0,0.0,80,0.00,,---,0.00,0.00,VWS V14.01,2013-07-23 06:44:00,
2013-07-23 01:45:00,72.7,66.5,29.59,NNW,346,0.0,0.0,81,0.00,,---,0.00,0.00,VWS V14.01,2013-07-23 06:45:00,
2013-07-23 01:49:00,72.7,66.5,29.59,North,356,0.0,0.0,81,0.00,,---,0.00,0.00,VWS V14.01,2013-07-23 06:49:00,
2013-07-23 01:50:00,72.7,66.5,29.59,North,353,0.0,0.0,81,0.00,,---,0.00,0.00,VWS V14.01,2013-07-23 06:50:00,
2013-07-23 01:55:00,72.7,66.5,29.59,NNW,346,0.0,0.0,81,0.00,,---,0.00,0.00,VWS V14.01,2013-07-23 06:55:00,
2013-07-23 02:00:00,72.8,66.6,29.58,North,0,0.0,0.0,81,0.00,,---,0.00,0.00,VWS V14.01,2013-07-23 07:00:00,
2013-07-23 02:05:00,72.8,66.3,29.58,North,349,0.0,0.0,80,0.00,,---,0.00,0.00,VWS V14.01,2013-07-23 07:05:00,
2013-07-23 02:10:00,73.0,66.5,29.58,North,352,3.0,3.0,80,0.00,,---,0.00,0.00,VWS V14.01,2013-07-23 07:10:00,
2013-07-23 02:15:00,73.0,66.5,29.58,North,353,3.0,3.0,80,0.00,,---,0.00,0.00,VWS V14.01,2013-07-23 07:15:00,
2013-07-23 02:20:00,73.0,66.1,29.58,North,354,1.0,5.0,79,0.00,,---,0.00,0.00,VWS V14.01,2013-07-23 07:20:00,
2013-07-23 02:25:00,73.0,66.1,29.58,East,86,3.0,5.0,79,0.00,,---,0.00,0.00,VWS V14.01,2013-07-23 07:25:00,
2013-07-23 02:30:00,72.8,66.3,29.56,ENE,78,1.0,5.0,80,0.00,,---,0.00,0.00,VWS V14.01,2013-07-23 07:30:00,
2013-07-23 02:35:00,72.8,66.3,29.56,East,82,0.0,3.0,80,0.00,,---,0.00,0.00,VWS V14.01,2013-07-23 07:35:00,
2013-07-23 02:40:00,72.8,66.3,29.56,East,85,0.0,0.0,80,0.00,,---,0.00,0.00,VWS V14.01,2013-07-23 07:40:00,
2013-07-23 02:45:00,73.0,66.5,29.56,ESE,110,0.0,0.0,80,0.00,,---,0.00,0.00,VWS V14.01,2013-07-23 07:45:00,
2013-07-23 02:50:00,73.0,66.5,29.56,ENE,78,0.0,0.0,80,0.00,,---,0.00,0.00,VWS V14.01,2013-07-23 07:50:00,
2013-07-23 02:55:00,72.8,66.3,29.56,East,99,2.0,3.0,80,0.00,,---,0.00,0.00,VWS V14.01,2013-07-23 07:55:00,
2013-07-23 03:00:00,73.0,66.5,29.56,East,82,2.0,4.0,80,0.00,,---,0.00,0.00,VWS V14.01,2013-07-23 08:00:00,
2013-07-23 03:01:00,73.0,66.1,29.56,ESE,114,2.0,2.0,79,0.00,,---,0.00,0.00,VWS V14.01,2013-07-23 08:01:00,
2013-07-23 03:02:00,73.0,66.1,29.56,East,93,3.0,4.0,79,0.00,,---,0.00,0.00,VWS V14.01,2013-07-23 08:02:00,
2013-07-23 03:05:00,73.0,66.1,29.56,East,79,3.0,4.0,79,0.00,,---,0.00,0.00,VWS V14.01,2013-07-23 08:05:00,
2013-07-23 03:07:00,73.2,66.3,29.56,SW,234,6.0,6.0,79,0.00,,---,0.00,0.00,VWS V14.01,2013-07-23 08:07:00,
2013-07-23 03:10:00,73.2,66.3,29.56,NNW,347,0.0,7.0,79,0.00,,---,0.00,0.00,VWS V14.01,2013-07-23 08:10:00,
2013-07-23 03:12:00,73.0,66.1,29.56,North,0,0.0,0.0,79,0.00,,---,0.00,0.00,VWS V14.01,2013-07-23 08:12:00,
2013-07-23 03:15:00,73.0,66.1,29.58,NNW,347,0.0,6.0,79,0.00,,---,0.00,0.00,VWS V14.01,2013-07-23 08:15:00,
2013-07-23 03:17:00,72.8,66.3,29.58,SSE,168,3.0,4.0,80,0.00,,---,0.00,0.00,VWS V14.01,2013-07-23 08:17:00,
2013-07-23 03:20:00,72.8,66.3,29.58,East,88,2.0,6.0,80,0.00,,---,0.00,0.00,VWS V14.01,2013-07-23 08:20:00,
2013-07-23 03:22:00,72.8,66.3,29.58,ENE,71,2.0,3.0,80,0.00,,---,0.00,0.00,VWS V14.01,2013-07-23 08:22:00,
2013-07-23 03:25:00,72.7,66.2,29.58,East,88,0.0,3.0,80,0.00,,---,0.00,0.00,VWS V14.01,2013-07-23 08:25:00,
2013-07-23 03:27:00,72.7,66.2,29.58,NE,52,1.0,5.0,80,0.00,,---,0.00,0.00,VWS V14.01,2013-07-23 08:27:00,
2013-07-23 03:30:00,72.5,66.0,29.59,NE,51,0.0,5.0,80,0.00,,---,0.00,0.00,VWS V14.01,2013-07-23 08:30:00,
2013-07-23 03:32:00,72.3,66.2,29.59,NE,51,0.0,0.0,81,0.00,,---,0.00,0.00,VWS V14.01,2013-07-23 08:32:00,
2013-07-23 03:35:00,72.1,65.9,29.59,NE,51,0.0,0.0,81,0.00,,---,0.00,0.00,VWS V14.01,2013-07-23 08:35:00,
2013-07-23 03:37:00,72.0,66.2,29.59,NE,56,2.0,2.0,82,0.00,,---,0.00,0.00,VWS V14.01,2013-07-23 08:37:00,
2013-07-23 03:40:00,72.0,66.2,29.59,NE,56,0.0,3.0,82,0.00,,---,0.00,0.00,VWS V14.01,2013-07-23 08:40:00,
2013-07-23 03:42:00,72.0,66.2,29.59,NE,56,3.0,3.0,82,0.00,,---,0.00,0.00,VWS V14.01,2013-07-23 08:42:00,
2013-07-23 03:45:00,72.1,66.3,29.59,ENE,59,0.0,5.0,82,0.00,,---,0.00,0.00,VWS V14.01,2013-07-23 08:45:00,
2013-07-23 03:47:00,72.0,66.2,29.59,ENE,59,0.0,0.0,82,0.00,,---,0.00,0.00,VWS V14.01,2013-07-23 08:47:00,
2013-07-23 03:50:00,72.0,66.2,29.59,NE,56,0.0,0.0,82,0.00,,---,0.00,0.00,VWS V14.01,2013-07-23 08:50:00,
2013-07-23 03:52:00,72.0,66.2,29.59,NE,56,0.0,0.0,82,0.00,,---,0.00,0.00,VWS V14.01,2013-07-23 08:52:00,
2013-07-23 03:55:00,72.1,66.3,29.59,NE,54,5.0,6.0,82,0.00,,---,0.00,0.00,VWS V14.01,2013-07-23 08:55:00,
2013-07-23 03:58:00,72.1,65.9,29.59,SE,138,3.0,5.0,81,0.00,,---,0.00,0.00,VWS V14.01,2013-07-23 08:58:00,
2013-07-23 04:00:00,72.3,66.2,29.58,SE,138,2.0,5.0,81,0.00,,---,0.00,0.00,VWS V14.01,2013-07-23 09:00:00,
2013-07-23 04:03:00,72.3,66.2,29.58,SE,131,2.0,3.0,81,0.00,,---,0.00,0.00,VWS V14.01,2013-07-23 09:03:00,
2013-07-23 04:05:00,72.3,66.2,29.58,NE,56,5.0,5.0,81,0.00,,---,0.00,0.00,VWS V14.01,2013-07-23 09:05:00,
2013-07-23 04:08:00,72.3,65.8,29.58,ESE,112,5.0,5.0,80,0.00,,---,0.00,0.00,VWS V14.01,2013-07-23 09:08:00,
2013-07-23 04:10:00,72.5,65.6,29.58,ESE,119,1.0,5.0,79,0.00,,---,0.00,0.00,VWS V14.01,2013-07-23 09:10:00,
2013-07-23 04:13:00,72.5,65.6,29.58,ENE,72,4.0,4.0,79,0.00,,---,0.00,0.00,VWS V14.01,2013-07-23 09:13:00,
2013-07-23 04:15:00,72.7,65.4,29.58,NE,56,3.0,5.0,78,0.00,,---,0.00,0.00,VWS V14.01,2013-07-23 09:15:00,
2013-07-23 04:18:00,72.8,65.6,29.58,ENE,76,6.0,6.0,78,0.00,,---,0.00,0.00,VWS V14.01,2013-07-23 09:18:00,
2013-07-23 04:20:00,72.8,65.2,29.58,South,191,5.0,7.0,77,0.00,,---,0.00,0.00,VWS V14.01,2013-07-23 09:20:00,
2013-07-23 04:23:00,73.2,64.8,29.58,ESE,116,5.0,7.0,75,0.00,,---,0.00,0.00,VWS V14.01,2013-07-23 09:23:00,
2013-07-23 04:25:00,73.5,65.1,29.58,South,174,6.0,7.0,75,0.00,,---,0.00,0.00,VWS V14.01,2013-07-23 09:25:00,
2013-07-23 04:28:00,73.5,65.1,29.58,SE,127,5.0,6.0,75,0.00,,---,0.00,0.00,VWS V14.01,2013-07-23 09:28:00,
2013-07-23 04:30:00,73.7,65.3,29.57,East,89,5.0,6.0,75,0.00,,---,0.00,0.00,VWS V14.01,2013-07-23 09:30:00,
2013-07-23 04:33:00,73.7,65.3,29.57,East,85,1.0,5.0,75,0.00,,---,0.00,0.00,VWS V14.01,2013-07-23 09:33:00,
2013-07-23 04:35:00,73.7,65.3,29.57,South,174,0.0,5.0,75,0.00,,---,0.00,0.00,VWS V14.01,2013-07-23 09:35:00,
2013-07-23 04:38:00,73.5,65.1,29.57,West,277,7.0,7.0,75,0.00,,---,0.00,0.00,VWS V14.01,2013-07-23 09:38:00,
2013-07-23 04:40:00,73.5,65.1,29.57,SE,136,7.0,8.0,75,0.00,,---,0.00,0.00,VWS V14.01,2013-07-23 09:40:00,
2013-07-23 04:43:00,73.2,65.6,29.57,NW,304,5.0,9.0,77,0.00,,---,0.00,0.00,VWS V14.01,2013-07-23 09:43:00,
2013-07-23 04:45:00,72.8,65.6,29.57,NNW,344,12.0,13.0,78,0.00,,---,0.00,0.00,VWS V14.01,2013-07-23 09:45:00,
2013-07-23 04:48:00,72.5,65.6,29.57,NW,320,10.0,12.0,79,0.00,,---,0.00,0.00,VWS V14.01,2013-07-23 09:48:00,
2013-07-23 04:50:00,72.1,65.9,29.57,North,352,8.0,12.0,81,0.00,,---,0.00,0.00,VWS V14.01,2013-07-23 09:50:00,
2013-07-23 04:53:00,71.6,65.8,29.57,North,0,11.0,13.0,82,0.00,,---,0.00,0.00,VWS V14.01,2013-07-23 09:53:00,
2013-07-23 04:55:00,71.3,65.9,29.57,North,353,7.0,13.0,83,0.00,,---,0.00,0.00,VWS V14.01,2013-07-23 09:55:00,
2013-07-23 04:59:00,70.9,66.2,29.57,NNW,344,10.0,11.0,85,0.00,,---,0.00,0.00,VWS V14.01,2013-07-23 09:59:00,
2013-07-23 05:00:00,70.9,66.2,29.59,North,0,5.0,11.0,85,0.00,,---,0.00,0.00,VWS V14.01,2013-07-23 10:00:00,
2013-07-23 05:04:00,70.8,66.1,29.59,North,354,10.0,10.0,85,0.00,,---,0.00,0.00,VWS V14.01,2013-07-23 10:04:00,
2013-07-23 05:05:00,70.8,66.4,29.59,South,176,8.0,11.0,86,0.00,,---,0.00,0.00,VWS V14.01,2013-07-23 10:05:00,
2013-07-23 05:09:00,70.8,66.1,29.59,North,359,6.0,10.0,85,0.00,,---,0.00,0.00,VWS V14.01,2013-07-23 10:09:00,
2013-07-23 05:10:00,70.8,66.1,29.59,North,357,3.0,10.0,85,0.00,,---,0.00,0.00,VWS V14.01,2013-07-23 10:10:00,
2013-07-23 05:14:00,70.9,66.2,29.59,ESE,113,7.0,7.0,85,0.00,,---,0.00,0.00,VWS V14.01,2013-07-23 10:14:00,
2013-07-23 05:15:00,70.9,66.2,29.60,North,353,5.0,7.0,85,0.00,,---,0.00,0.00,VWS V14.01,2013-07-23 10:15:00,
2013-07-23 05:19:00,70.9,65.8,29.60,North,0,8.0,9.0,84,0.00,,---,0.00,0.00,VWS V14.01,2013-07-23 10:19:00,
2013-07-23 05:20:00,70.9,65.8,29.60,North,352,5.0,9.0,84,0.00,,---,0.00,0.00,VWS V14.01,2013-07-23 10:20:00,
2013-07-23 05:24:00,70.9,65.8,29.60,North,350,9.0,11.0,84,0.00,,---,0.00,0.00,VWS V14.01,2013-07-23 10:24:00,
2013-07-23 05:25:00,70.9,65.8,29.60,SW,236,8.0,11.0,84,0.00,,---,0.00,0.00,VWS V14.01,2013-07-23 10:25:00,
2013-07-23 05:29:00,70.8,66.1,29.60,WSW,258,8.0,11.0,85,0.00,,---,0.00,0.00,VWS V14.01,2013-07-23 10:29:00,
2013-07-23 05:30:00,70.8,66.1,29.58,NNW,346,2.0,11.0,85,0.00,,---,0.00,0.00,VWS V14.01,2013-07-23 10:30:00,
2013-07-23 05:34:00,70.8,66.1,29.58,North,353,8.0,12.0,85,0.00,,---,0.00,0.00,VWS V14.01,2013-07-23 10:34:00,
2013-07-23 05:35:00,70.8,66.1,29.58,WSW,254,10.0,12.0,85,0.00,,---,0.00,0.00,VWS V14.01,2013-07-23 10:35:00,
2013-07-23 05:39:00,70.8,66.1,29.58,South,185,6.0,11.0,85,0.00,,---,0.00,0.00,VWS V14.01,2013-07-23 10:39:00,
2013-07-23 05:40:00,70.8,66.4,29.58,North,0,6.0,11.0,86,0.00,,---,0.00,0.00,VWS V14.01,2013-07-23 10:40:00,
2013-07-23 05:44:00,70.6,66.2,29.58,NNW,344,12.0,12.0,86,0.00,,---,0.00,0.00,VWS V14.01,2013-07-23 10:44:00,
2013-07-23 05:45:00,70.6,66.2,29.58,North,359,12.0,12.0,86,0.00,,---,0.00,0.00,VWS V14.01,2013-07-23 10:45:00,
2013-07-23 05:49:00,70.4,66.0,29.58,SSW,198,4.0,12.0,86,0.00,,---,0.00,0.00,VWS V14.01,2013-07-23 10:49:00,
2013-07-23 05:50:00,70.4,66.0,29.58,NNW,344,7.0,12.0,86,0.00,,---,0.00,0.00,VWS V14.01,2013-07-23 10:50:00,
2013-07-23 05:55:00,70.4,66.3,29.58,North,349,7.0,11.0,87,0.00,,---,0.00,0.00,VWS V14.01,2013-07-23 10:55:00,
2013-07-23 06:00:00,70.4,66.3,29.60,SSW,212,5.0,10.0,87,0.00,,---,0.00,0.00,VWS V14.01,2013-07-23 11:00:00,
2013-07-23 06:05:00,70.6,66.9,29.60,South,174,7.0,8.0,88,0.00,,---,0.00,0.00,VWS V14.01,2013-07-23 11:05:00,
2013-07-23 06:10:00,70.8,66.7,29.60,South,172,7.0,8.0,87,0.00,,---,0.00,0.00,VWS V14.01,2013-07-23 11:10:00,
2013-07-23 06:15:00,70.9,66.8,29.60,NNW,330,8.0,11.0,87,0.00,,---,0.00,0.00,VWS V14.01,2013-07-23 11:15:00,
2013-07-23 06:20:00,70.9,66.5,29.60,WSW,253,11.0,12.0,86,0.00,,---,0.00,0.00,VWS V14.01,2013-07-23 11:20:00,
2013-07-23 06:25:00,70.9,66.5,29.60,North,350,9.0,12.0,86,0.00,,---,0.00,0.00,VWS V14.01,2013-07-23 11:25:00,
2013-07-23 06:30:00,70.9,66.5,29.61,North,0,10.0,12.0,86,0.00,,---,0.00,5.00,VWS V14.01,2013-07-23 11:30:00,
2013-07-23 06:35:00,70.8,66.4,29.61,NNW,347,7.0,11.0,86,0.00,,---,0.00,16.00,VWS V14.01,2013-07-23 11:35:00,
2013-07-23 06:40:00,70.8,66.7,29.61,North,357,6.0,8.0,87,0.00,,---,0.00,30.00,VWS V14.01,2013-07-23 11:40:00,
2013-07-23 06:45:00,71.1,67.0,29.60,NW,322,7.0,12.0,87,0.00,,---,0.00,44.00,VWS V14.01,2013-07-23 11:45:00,
2013-07-23 06:50:00,71.6,67.2,29.60,North,352,6.0,9.0,86,0.00,,---,0.00,49.00,VWS V14.01,2013-07-23 11:50:00,
2013-07-23 06:55:00,71.8,67.1,29.60,NNW,344,6.0,6.0,85,0.00,,---,0.00,60.00,VWS V14.01,2013-07-23 11:55:00,
2013-07-23 07:00:00,72.1,67.3,29.60,NNW,343,3.0,5.0,85,0.00,,---,0.00,72.00,VWS V14.01,2013-07-23 12:00:00,
2013-07-23 07:05:00,72.3,67.2,29.60,North,0,6.0,6.0,84,0.00,,---,0.00,65.00,VWS V14.01,2013-07-23 12:05:00,
2013-07-23 07:10:00,72.5,67.1,29.60,North,350,5.0,7.0,83,0.00,,---,0.00,95.00,VWS V14.01,2013-07-23 12:10:00,
2013-07-23 07:11:00,72.5,67.1,29.60,SSE,157,4.0,5.0,83,0.00,,---,0.00,95.00,VWS V14.01,2013-07-23 12:11:00,
2013-07-23 07:15:00,72.7,67.2,29.62,WNW,287,5.0,7.0,83,0.00,,---,0.00,81.00,VWS V14.01,2013-07-23 12:15:00,
2013-07-23 07:16:00,72.7,67.2,29.62,SSW,192,5.0,6.0,83,0.00,,---,0.00,81.00,VWS V14.01,2013-07-23 12:16:00,
2013-07-23 07:20:00,72.8,67.0,29.62,NW,304,8.0,8.0,82,0.00,,---,0.00,26.00,VWS V14.01,2013-07-23 12:20:00,
2013-07-23 07:21:00,72.8,67.0,29.62,WSW,246,7.0,8.0,82,0.00,,---,0.00,25.00,VWS V14.01,2013-07-23 12:21:00,
2013-07-23 07:25:00,72.7,67.2,29.62,North,359,17.0,20.0,83,0.00,,---,0.00,19.00,VWS V14.01,2013-07-23 12:25:00,
2013-07-23 07:26:00,72.7,67.2,29.62,North,357,15.0,19.0,83,0.00,,---,0.00,18.00,VWS V14.01,2013-07-23 12:26:00,
2013-07-23 07:30:00,72.7,67.2,29.68,North,0,21.0,22.0,83,0.00,,---,0.00,18.00,VWS V14.01,2013-07-23 12:30:00,
2013-07-23 07:31:00,72.8,67.3,29.68,NE,54,17.0,21.0,83,0.00,,---,0.00,18.00,VWS V14.01,2013-07-23 12:31:00,
2013-07-23 07:35:00,73.2,67.4,29.68,SW,219,12.0,21.0,82,0.00,,---,0.00,11.00,VWS V14.01,2013-07-23 12:35:00,
2013-07-23 07:36:00,73.3,67.5,29.68,ENE,65,12.0,15.0,82,0.00,,---,0.00,11.00,VWS V14.01,2013-07-23 12:36:00,
2013-07-23 07:40:00,73.5,67.3,29.68,NNE,27,12.0,16.0,81,0.00,,---,0.00,11.00,VWS V14.01,2013-07-23 12:40:00,
2013-07-23 07:41:00,73.7,67.5,29.68,ESE,109,12.0,13.0,81,0.00,,---,0.00,11.00,VWS V14.01,2013-07-23 12:41:00,
2013-07-23 07:45:00,73.9,67.0,29.68,NNW,344,16.0,25.0,79,0.00,,---,0.00,14.00,VWS V14.01,2013-07-23 12:45:00,
2013-07-23 07:46:00,74.0,66.7,29.68,North,0,12.0,21.0,78,0.00,,---,0.00,12.00,VWS V14.01,2013-07-23 12:46:00,
2013-07-23 07:50:00,74.0,66.3,29.68,NNW,344,17.0,25.0,77,0.00,,---,0.00,11.00,VWS V14.01,2013-07-23 12:50:00,
2013-07-23 07:51:00,73.9,66.2,29.68,NW,318,20.0,25.0,77,0.00,,---,0.00,11.00,VWS V14.01,2013-07-23 12:51:00,
2013-07-23 07:55:00,73.2,65.9,29.68,WSW,239,19.0,25.0,78,0.00,,---,0.00,9.00,VWS V14.01,2013-07-23 12:55:00,
2013-07-23 07:56:00,73.2,65.9,29.68,SSE,150,16.0,19.0,78,0.00,,---,0.00,9.00,VWS V14.01,2013-07-23 12:56:00,
2013-07-23 08:00:00,72.8,65.9,29.70,North,0,21.0,21.0,79,0.00,,---,0.00,11.00,VWS V14.01,2013-07-23 13:00:00,
2013-07-23 08:01:00,72.8,65.9,29.70,SE,130,20.0,21.0,79,0.00,,---,0.00,11.00,VWS V14.01,2013-07-23 13:01:00,
2013-07-23 08:05:00,72.8,65.9,29.70,SSE,157,20.0,24.0,79,0.00,,---,0.00,11.00,VWS V14.01,2013-07-23 13:05:00,
2013-07-23 08:06:00,72.7,65.4,29.70,WSW,244,18.0,21.0,78,0.00,,---,0.00,11.00,VWS V14.01,2013-07-23 13:06:00,
2013-07-23 08:10:00,72.7,65.4,29.70,North,0,12.0,24.0,78,0.00,,---,0.00,5.00,VWS V14.01,2013-07-23 13:10:00,
2013-07-23 08:12:00,72.7,65.4,29.70,SE,127,12.0,19.0,78,0.00,,---,0.00,5.00,VWS V14.01,2013-07-23 13:12:00,
2013-07-23 08:15:00,72.5,65.3,29.75,North,353,12.0,19.0,78,0.00,,---,0.00,5.00,VWS V14.01,2013-07-23 13:15:00,
2013-07-23 08:17:00,72.5,65.3,29.75,East,88,13.0,19.0,78,0.00,,---,0.00,5.00,VWS V14.01,2013-07-23 13:17:00,
2013-07-23 08:20:00,72.3,65.1,29.75,East,90,14.0,19.0,78,0.00,,---,0.00,5.00,VWS V14.01,2013-07-23 13:20:00,
2013-07-23 08:22:00,72.3,65.1,29.75,SSW,193,17.0,18.0,78,0.00,,---,0.00,5.00,VWS V14.01,2013-07-23 13:22:00,
2013-07-23 08:25:00,72.1,64.9,29.75,ESE,113,17.0,19.0,78,0.00,,---,0.00,0.00,VWS V14.01,2013-07-23 13:25:00,
2013-07-23 08:27:00,72.1,64.9,29.75,SSW,198,11.0,18.0,78,0.00,,---,0.00,0.00,VWS V14.01,2013-07-23 13:27:00,
2013-07-23 08:30:00,72.0,64.8,29.74,NNE,31,11.0,18.0,78,0.00,,---,0.00,0.00,VWS V14.01,2013-07-23 13:30:00,
2013-07-23 08:32:00,71.8,64.6,29.74,SW,222,10.0,16.0,78,0.00,,---,0.00,0.00,VWS V14.01,2013-07-23 13:32:00,
2013-07-23 08:35:00,71.8,64.9,29.74,SW,232,11.0,16.0,79,0.00,,---,0.00,0.00,VWS V14.01,2013-07-23 13:35:00,
2013-07-23 08:37:00,71.6,64.8,29.74,NE,55,9.0,13.0,79,0.00,,---,0.00,0.00,VWS V14.01,2013-07-23 13:37:00,
2013-07-23 08:40:00,71.5,64.7,29.74,North,350,12.0,14.0,79,0.00,,---,0.00,9.00,VWS V14.01,2013-07-23 13:40:00,
2013-07-23 08:42:00,71.3,64.5,29.74,NNW,340,12.0,18.0,79,0.00,,---,0.00,9.00,VWS V14.01,2013-07-23 13:42:00,
2013-07-23 08:45:00,71.1,64.6,29.70,NW,319,10.0,18.0,80,0.00,,---,0.00,9.00,VWS V14.01,2013-07-23 13:45:00,
2013-07-23 08:47:00,71.1,64.6,29.70,East,83,13.0,16.0,80,0.00,,---,0.00,9.00,VWS V14.01,2013-07-23 13:47:00,
2013-07-23 08:50:00,70.8,64.0,29.70,North,354,17.0,22.0,79,0.00,,---,0.00,11.00,VWS V14.01,2013-07-23 13:50:00,
2013-07-23 08:52:00,70.8,64.0,29.70,NNW,330,25.0,25.0,79,0.00,,---,0.00,11.00,VWS V14.01,2013-07-23 13:52:00,
2013-07-23 08:55:00,70.4,63.6,29.70,SSW,209,24.0,27.0,79,0.00,,---,0.00,16.00,VWS V14.01,2013-07-23 13:55:00,
2013-07-23 08:57:00,70.3,63.5,29.70,East,82,21.0,24.0,79,0.00,,---,0.00,23.00,VWS V14.01,2013-07-23 13:57:00,
2013-07-23 09:00:00,70.1,63.7,29.67,West,278,19.0,25.0,80,0.00,,---,0.00,23.00,VWS V14.01,2013-07-23 14:00:00,
2013-07-23 09:02:00,69.9,63.5,29.67,North,353,18.0,25.0,80,0.00,,---,0.00,42.00,VWS V14.01,2013-07-23 14:02:00,
2013-07-23 09:05:00,69.8,63.4,29.67,North,354,18.0,25.0,80,0.00,,---,0.00,77.00,VWS V14.01,2013-07-23 14:05:00,
2013-07-23 09:08:00,69.8,63.7,29.67,SE,138,16.0,18.0,81,0.00,,---,0.00,95.00,VWS V14.01,2013-07-23 14:08:00,
2013-07-23 09:10:00,69.6,63.5,29.67,NW,316,13.0,22.0,81,0.01,,---,0.01,100.00,VWS V14.01,2013-07-23 14:10:00,
2013-07-23 09:13:00,69.6,63.2,29.67,WSW,258,17.0,25.0,80,0.01,,---,0.01,99.00,VWS V14.01,2013-07-23 14:13:00,
2013-07-23 09:15:00,69.6,63.2,29.66,North,357,9.0,25.0,80,0.01,,---,0.01,97.00,VWS V14.01,2013-07-23 14:15:00,
2013-07-23 09:18:00,69.8,63.0,29.66,North,0,11.0,17.0,79,0.01,,---,0.01,102.00,VWS V14.01,2013-07-23 14:18:00,
2013-07-23 09:20:00,69.8,63.0,29.66,North,0,11.0,20.0,79,0.01,,---,0.01,111.00,VWS V14.01,2013-07-23 14:20:00,
2013-07-23 09:23:00,69.9,62.7,29.66,NW,323,13.0,18.0,78,0.01,,---,0.01,128.00,VWS V14.01,2013-07-23 14:23:00,
2013-07-23 09:25:00,70.3,63.1,29.66,West,267,14.0,18.0,78,0.01,,---,0.01,148.00,VWS V14.01,2013-07-23 14:25:00,
2013-07-23 09:28:00,70.4,63.2,29.66,North,0,15.0,17.0,78,0.01,,---,0.01,165.00,VWS V14.01,2013-07-23 14:28:00,
2013-07-23 09:30:00,70.6,63.0,29.62,SE,126,17.0,17.0,77,0.01,,---,0.01,176.00,VWS V14.01,2013-07-23 14:30:00,
2013-07-23 09:33:00,70.9,63.0,29.62,North,0,18.0,22.0,76,0.01,,---,0.01,215.00,VWS V14.01,2013-07-23 14:33:00,
2013-07-23 09:35:00,70.9,63.0,29.62,North,359,17.0,22.0,76,0.01,,---,0.01,246.00,VWS V14.01,2013-07-23 14:35:00,
2013-07-23 09:38:00,71.1,63.9,29.62,North,352,13.0,19.0,78,0.01,,---,0.01,232.00,VWS V14.01,2013-07-23 14:38:00,
2013-07-23 09:40:00,71.1,63.9,29.62,WNW,294,12.0,19.0,78,0.01,,---,0.01,253.00,VWS V14.01,2013-07-23 14:40:00,
2013-07-23 09:43:00,71.3,64.5,29.62,NNW,347,18.0,18.0,79,0.01,,---,0.01,282.00,VWS V14.01,2013-07-23 14:43:00,
2013-07-23 09:45:00,71.3,64.1,29.59,NNW,347,8.0,18.0,78,0.01,,---,0.01,303.00,VWS V14.01,2013-07-23 14:45:00,
2013-07-23 09:48:00,71.6,64.4,29.59,SW,223,16.0,19.0,78,0.01,,---,0.01,494.00,VWS V14.01,2013-07-23 14:48:00,
2013-07-23 09:50:00,72.1,64.5,29.59,SSW,198,11.0,19.0,77,0.01,,---,0.01,549.00,VWS V14.01,2013-07-23 14:50:00,
2013-07-23 09:53:00,72.7,65.1,29.59,NNW,339,16.0,16.0,77,0.01,,---,0.01,596.00,VWS V14.01,2013-07-23 14:53:00,
2013-07-23 09:55:00,73.2,65.6,29.59,WNW,296,14.0,18.0,77,0.01,,---,0.01,596.00,VWS V14.01,2013-07-23 14:55:00,
2013-07-23 09:58:00,73.0,64.6,29.59,North,353,6.0,15.0,75,0.01,,---,0.01,595.00,VWS V14.01,2013-07-23 14:58:00,
2013-07-23 10:00:00,73.2,65.2,29.61,NNW,346,9.0,15.0,76,0.01,,---,0.01,607.00,VWS V14.01,2013-07-23 15:00:00,
2013-07-23 10:03:00,73.5,65.1,29.61,SSE,148,11.0,13.0,75,0.01,,---,0.01,616.00,VWS V14.01,2013-07-23 15:03:00,
2013-07-23 10:05:00,73.9,65.5,29.61,North,0,12.0,19.0,75,0.01,,---,0.01,589.00,VWS V14.01,2013-07-23 15:05:00,
2013-07-23 10:09:00,73.9,64.3,29.61,SE,127,3.0,13.0,72,0.01,,---,0.01,602.00,VWS V14.01,2013-07-23 15:09:00,
2013-07-23 10:10:00,74.0,64.4,29.61,ENE,68,7.0,13.0,72,0.01,,---,0.01,596.00,VWS V14.01,2013-07-23 15:10:00,
2013-07-23 10:14:00,74.6,64.6,29.61,North,0,18.0,19.0,71,0.00,,---,0.01,574.00,VWS V14.01,2013-07-23 15:14:00,
2013-07-23 10:15:00,74.9,64.9,29.66,North,356,12.0,19.0,71,0.00,,---,0.01,588.00,VWS V14.01,2013-07-23 15:15:00,
2013-07-23 10:19:00,74.9,64.5,29.66,NNW,347,12.0,17.0,70,0.00,,---,0.01,612.00,VWS V14.01,2013-07-23 15:19:00,
2013-07-23 10:20:00,74.9,64.9,29.66,ENE,73,11.0,17.0,71,0.00,,---,0.01,607.00,VWS V14.01,2013-07-23 15:20:00,
2013-07-23 10:24:00,74.9,64.9,29.66,ESE,121,17.0,18.0,71,0.00,,---,0.01,612.00,VWS V14.01,2013-07-23 15:24:00,
2013-07-23 10:25:00,74.9,64.9,29.66,ENE,66,19.0,19.0,71,0.00,,---,0.01,635.00,VWS V14.01,2013-07-23 15:25:00,
2013-07-23 10:29:00,74.9,64.5,29.66,North,1,14.0,19.0,70,0.00,,---,0.01,633.00,VWS V14.01,2013-07-23 15:29:00,
2013-07-23 10:30:00,75.1,64.7,29.69,WNW,294,19.0,19.0,70,0.00,,---,0.01,633.00,VWS V14.01,2013-07-23 15:30:00,
2013-07-23 10:34:00,75.4,64.5,29.69,WNW,292,12.0,19.0,69,0.00,,---,0.01,656.00,VWS V14.01,2013-07-23 15:34:00,
2013-07-23 10:35:00,75.4,64.5,29.69,WSW,258,6.0,19.0,69,0.00,,---,0.01,656.00,VWS V14.01,2013-07-23 15:35:00,
2013-07-23 10:39:00,75.6,64.7,29.69,NW,309,21.0,21.0,69,0.00,,---,0.01,683.00,VWS V14.01,2013-07-23 15:39:00,
2013-07-23 10:40:00,75.4,64.1,29.69,North,350,18.0,21.0,68,0.00,,---,0.01,684.00,VWS V14.01,2013-07-23 15:40:00,
2013-07-23 10:44:00,75.6,64.3,29.69,North,353,12.0,20.0,68,0.00,,---,0.01,672.00,VWS V14.01,2013-07-23 15:44:00,
2013-07-23 10:45:00,75.6,64.3,29.71,NNW,335,17.0,20.0,68,0.00,,---,0.01,672.00,VWS V14.01,2013-07-23 15:45:00,
2013-07-23 10:49:00,75.8,64.9,29.71,NNW,333,10.0,20.0,69,0.00,,---,0.01,702.00,VWS V14.01,2013-07-23 15:49:00,
2013-07-23 10:50:00,75.8,64.9,29.71,NW,322,13.0,20.0,69,0.00,,---,0.01,706.00,VWS V14.01,2013-07-23 15:50:00,
2013-07-23 10:54:00,76.0,65.1,29.71,North,349,16.0,17.0,69,0.00,,---,0.01,714.00,VWS V14.01,2013-07-23 15:54:00,
2013-07-23 10:55:00,76.0,65.1,29.71,North,0,15.0,18.0,69,0.00,,---,0.01,713.00,VWS V14.01,2013-07-23 15:55:00,
2013-07-23 11:00:00,76.3,65.4,29.70,North,357,18.0,19.0,69,0.00,,---,0.01,721.00,VWS V14.01,2013-07-23 16:00:00,
2013-07-23 11:05:00,76.7,64.1,29.70,ESE,116,14.0,20.0,65,0.00,,---,0.01,728.00,VWS V14.01,2013-07-23 16:05:00,
2013-07-23 11:10:00,76.7,64.1,29.70,North,0,18.0,21.0,65,0.00,,---,0.01,739.00,VWS V14.01,2013-07-23 16:10:00,
2013-07-23 11:15:00,77.4,65.2,29.69,North,352,14.0,21.0,66,0.00,,---,0.01,757.00,VWS V14.01,2013-07-23 16:15:00,
2013-07-23 11:20:00,77.2,65.0,29.69,North,0,19.0,24.0,66,0.00,,---,0.01,765.00,VWS V14.01,2013-07-23 16:20:00,
2013-07-23 11:25:00,77.4,64.7,29.69,North,350,20.0,22.0,65,0.00,,---,0.01,774.00,VWS V14.01,2013-07-23 16:25:00,
2013-07-23 11:30:00,77.6,64.9,29.67,North,0,21.0,22.0,65,0.00,,---,0.01,785.00,VWS V14.01,2013-07-23 16:30:00,
2013-07-23 11:35:00,77.9,64.8,29.67,North,350,19.0,21.0,64,0.00,,---,0.01,794.00,VWS V14.01,2013-07-23 16:35:00,
2013-07-23 11:40:00,78.3,65.1,29.67,ESE,107,13.0,24.0,64,0.00,,---,0.01,797.00,VWS V14.01,2013-07-23 16:40:00,
2013-07-23 11:45:00,78.6,65.0,29.67,NNW,344,20.0,24.0,63,0.00,,---,0.01,809.00,VWS V14.01,2013-07-23 16:45:00,
2013-07-23 11:50:00,78.5,64.4,29.67,NNW,343,20.0,27.0,62,0.00,,---,0.01,813.00,VWS V14.01,2013-07-23 16:50:00,
2013-07-23 11:55:00,78.6,64.5,29.67,North,353,14.0,28.0,62,0.00,,---,0.01,822.00,VWS V14.01,2013-07-23 16:55:00,
2013-07-23 12:00:00,79.2,65.5,29.66,ESE,103,17.0,24.0,63,0.00,,---,0.01,829.00,VWS V14.01,2013-07-23 17:00:00,
2013-07-23 12:05:00,79.6,65.4,29.66,North,0,19.0,25.0,62,0.00,,---,0.01,834.00,VWS V14.01,2013-07-23 17:05:00,
2013-07-23 12:10:00,79.8,65.6,29.66,NW,311,20.0,21.0,62,0.00,,---,0.01,843.00,VWS V14.01,2013-07-23 17:10:00,
2013-07-23 12:15:00,79.9,65.3,29.65,NNW,340,19.0,19.0,61,0.00,,---,0.01,853.00,VWS V14.01,2013-07-23 17:15:00,
2013-07-23 12:20:00,80.1,65.4,29.65,NNW,346,22.0,22.0,61,0.00,,---,0.01,859.00,VWS V14.01,2013-07-23 17:20:00,
2013-07-23 12:25:00,80.9,65.7,29.65,North,352,17.0,24.0,60,0.00,,---,0.01,797.00,VWS V14.01,2013-07-23 17:25:00,
2013-07-23 12:26:00,80.9,65.2,29.65,SSE,164,16.0,21.0,59,0.00,,---,0.01,802.00,VWS V14.01,2013-07-23 17:26:00,
2013-07-23 12:30:00,80.9,64.2,29.65,North,350,16.0,26.0,57,0.00,,---,0.01,860.00,VWS V14.01,2013-07-23 17:30:00,
2013-07-23 12:31:00,80.9,64.8,29.65,WNW,302,11.0,19.0,58,0.00,,---,0.01,869.00,VWS V14.01,2013-07-23 17:31:00,
2013-07-23 12:35:00,81.4,66.2,29.65,North,0,13.0,21.0,60,0.00,,---,0.01,880.00,VWS V14.01,2013-07-23 17:35:00,
2013-07-23 12:36:00,81.6,65.4,29.65,NNW,330,20.0,20.0,58,0.00,,---,0.01,882.00,VWS V14.01,2013-07-23 17:36:00,
2013-07-23 12:40:00,81.4,65.2,29.65,North,0,19.0,25.0,58,0.00,,---,0.01,899.00,VWS V14.01,2013-07-23 17:40:00,
2013-07-23 12:41:00,81.2,65.0,29.65,North,0,15.0,19.0,58,0.00,,---,0.01,873.00,VWS V14.01,2013-07-23 17:41:00,
2013-07-23 12:45:00,81.8,66.1,29.65,North,354,13.0,20.0,59,0.00,,---,0.01,961.00,VWS V14.01,2013-07-23 17:45:00,
2013-07-23 12:46:00,81.8,65.6,29.65,West,281,14.0,21.0,58,0.00,,---,0.01,961.00,VWS V14.01,2013-07-23 17:46:00,
2013-07-23 12:50:00,82.2,64.4,29.65,NNW,342,16.0,24.0,55,0.00,,---,0.01,832.00,VWS V14.01,2013-07-23 17:50:00,
2013-07-23 12:51:00,82.2,65.0,29.65,North,350,6.0,20.0,56,0.00,,---,0.01,832.00,VWS V14.01,2013-07-23 17:51:00,
2013-07-23 12:55:00,82.6,65.3,29.65,North,0,18.0,20.0,56,0.00,,---,0.01,947.00,VWS V14.01,2013-07-23 17:55:00,
2013-07-23 12:57:00,82.6,65.8,29.65,SSE,148,13.0,19.0,57,0.00,,---,0.01,977.00,VWS V14.01,2013-07-23 17:57:00,
2013-07-23 13:00:00,82.8,65.0,29.65,NNW,343,13.0,20.0,55,0.00,,---,0.01,948.00,VWS V14.01,2013-07-23 18:00:00,
2013-07-23 13:03:00,82.8,65.5,29.65,North,352,14.0,20.0,56,0.00,,---,0.01,971.00,VWS V14.01,2013-07-23 18:03:00,
2013-07-23 13:05:00,83.2,66.4,29.65,NNW,347,13.0,20.0,57,0.00,,---,0.01,1031.00,VWS V14.01,2013-07-23 18:05:00,
2013-07-23 13:08:00,83.4,66.1,29.65,North,352,13.0,17.0,56,0.00,,---,0.01,1061.00,VWS V14.01,2013-07-23 18:08:00,
2013-07-23 13:10:00,83.6,65.7,29.65,North,352,14.0,18.0,55,0.00,,---,0.01,292.00,VWS V14.01,2013-07-23 18:10:00,
2013-07-23 13:13:00,83.6,65.2,29.65,NNW,342,10.0,18.0,54,0.00,,---,0.01,282.00,VWS V14.01,2013-07-23 18:13:00,
2013-07-23 13:15:00,83.8,65.4,29.65,NW,325,13.0,18.0,54,0.00,,---,0.01,290.00,VWS V14.01,2013-07-23 18:15:00,
2013-07-23 13:19:00,84.0,65.1,29.65,North,0,16.0,19.0,53,0.00,,---,0.01,243.00,VWS V14.01,2013-07-23 18:19:00,
2013-07-23 13:20:00,84.1,64.6,29.65,NW,320,12.0,19.0,52,0.00,,---,0.01,269.00,VWS V14.01,2013-07-23 18:20:00,
2013-07-23 13:24:00,84.7,65.1,29.65,SSW,202,14.0,14.0,52,0.00,,---,0.01,245.00,VWS V14.01,2013-07-23 18:24:00,
2013-07-23 13:25:00,85.1,65.5,29.65,North,349,10.0,14.0,52,0.00,,---,0.01,568.00,VWS V14.01,2013-07-23 18:25:00,
2013-07-23 13:29:00,85.9,64.5,29.65,North,354,16.0,16.0,49,0.00,,---,0.01,403.00,VWS V14.01,2013-07-23 18:29:00,
2013-07-23 13:30:00,85.9,64.5,29.64,North,0,11.0,16.0,49,0.00,,---,0.01,403.00,VWS V14.01,2013-07-23 18:30:00,
2013-07-23 13:35:00,86.7,65.9,29.64,SW,233,7.0,12.0,50,0.00,,---,0.01,276.00,VWS V14.01,2013-07-23 18:35:00,
2013-07-23 13:40:00,87.2,65.7,29.64,West,270,11.0,16.0,49,0.00,,---,0.01,384.00,VWS V14.01,2013-07-23 18:40:00,
2013-07-23 13:45:00,87.0,65.0,29.64,NNW,342,11.0,16.0,48,0.00,,---,0.01,329.00,VWS V14.01,2013-07-23 18:45:00,
2013-07-23 13:50:00,87.4,65.3,29.64,NNW,336,8.0,13.0,48,0.00,,---,0.01,496.00,VWS V14.01,2013-07-23 18:50:00,
2013-07-23 13:55:00,87.6,64.9,29.64,WNW,292,7.0,14.0,47,0.00,,---,0.01,285.00,VWS V14.01,2013-07-23 18:55:00,
2013-07-23 14:00:00,87.8,66.3,29.63,North,0,9.0,14.0,49,0.00,,---,0.01,285.00,VWS V14.01,2013-07-23 19:00:00,
2013-07-23 14:05:00,88.0,64.0,29.63,NW,313,10.0,13.0,45,0.00,,---,0.01,334.00,VWS V14.01,2013-07-23 19:05:00,
2013-07-23 14:10:00,88.4,65.0,29.63,WSW,253,6.0,6.0,46,0.00,,---,0.01,406.00,VWS V14.01,2013-07-23 19:10:00,
2013-07-23 14:15:00,88.2,65.4,29.63,North,357,8.0,8.0,47,0.00,,---,0.01,545.00,VWS V14.01,2013-07-23 19:15:00,
2013-07-23 14:20:00,88.6,63.9,29.63,West,272,7.0,8.0,44,0.00,,---,0.01,556.00,VWS V14.01,2013-07-23 19:20:00,
2013-07-23 14:25:00,88.6,65.2,29.63,NNW,340,6.0,14.0,46,0.00,,---,0.01,452.00,VWS V14.01,2013-07-23 19:25:00,
2013-07-23 14:26:00,88.6,65.8,29.63,North,0,7.0,7.0,47,0.00,,---,0.01,452.00,VWS V14.01,2013-07-23 19:26:00,
2013-07-23 14:30:00,88.6,65.2,29.63,North,349,14.0,16.0,46,0.00,,---,0.01,431.00,VWS V14.01,2013-07-23 19:30:00,
2013-07-23 14:31:00,88.6,65.2,29.63,North,356,12.0,14.0,46,0.00,,---,0.01,431.00,VWS V14.01,2013-07-23 19:31:00,
2013-07-23 14:35:00,88.8,65.4,29.63,North,0,9.0,14.0,46,0.00,,---,0.01,431.00,VWS V14.01,2013-07-23 19:35:00,
2013-07-23 14:36:00,89.0,65.6,29.63,North,0,11.0,12.0,46,0.00,,---,0.01,431.00,VWS V14.01,2013-07-23 19:36:00,
2013-07-23 14:40:00,89.0,64.9,29.63,North,359,7.0,12.0,45,0.00,,---,0.01,816.00,VWS V14.01,2013-07-23 19:40:00,
2013-07-23 14:41:00,89.0,64.9,29.63,North,349,9.0,10.0,45,0.00,,---,0.01,816.00,VWS V14.01,2013-07-23 19:41:00,
2013-07-23 14:45:00,89.3,65.2,29.62,North,357,6.0,16.0,45,0.00,,---,0.01,816.00,VWS V14.01,2013-07-23 19:45:00,
2013-07-23 14:46:00,89.3,65.8,29.62,WSW,237,10.0,13.0,46,0.00,,---,0.01,860.00,VWS V14.01,2013-07-23 19:46:00,
2013-07-23 14:50:00,89.5,64.7,29.62,ESE,119,13.0,13.0,44,0.00,,---,0.01,1117.00,VWS V14.01,2013-07-23 19:50:00,
2013-07-23 14:51:00,89.5,64.7,29.62,NNW,336,8.0,13.0,44,0.00,,---,0.01,1117.00,VWS V14.01,2013-07-23 19:51:00,
2013-07-23 14:55:00,89.5,66.0,29.62,North,0,7.0,13.0,46,0.00,,---,0.01,1117.00,VWS V14.01,2013-07-23 19:55:00,
2013-07-23 14:57:00,89.7,66.2,29.62,WNW,294,7.0,10.0,46,0.00,,---,0.01,1117.00,VWS V14.01,2013-07-23 19:57:00,
2013-07-23 15:00:00,89.9,63.8,29.63,NNW,333,6.0,11.0,42,0.00,,---,0.01,1117.00,VWS V14.01,2013-07-23 20:00:00,
2013-07-23 15:03:00,90.1,63.9,29.63,NNW,346,10.0,12.0,42,0.00,,---,0.01,1117.00,VWS V14.01,2013-07-23 20:03:00,
2013-07-23 15:09:00,90.3,64.1,29.63,SE,126,9.0,9.0,42,0.00,,---,0.01,463.00,VWS V14.01,2013-07-23 20:09:00,
2013-07-23 15:10:00,90.3,63.4,29.63,SE,138,3.0,9.0,41,0.00,,---,0.01,463.00,VWS V14.01,2013-07-23 20:10:00,
2013-07-23 15:14:00,90.7,63.1,29.63,North,356,8.0,12.0,40,0.00,,---,0.01,948.00,VWS V14.01,2013-07-23 20:14:00,
2013-07-23 15:15:00,90.7,63.8,29.63,East,99,6.0,12.0,41,0.00,,---,0.01,971.00,VWS V14.01,2013-07-23 20:15:00,
2013-07-23 15:19:00,91.0,63.3,29.63,East,89,10.0,12.0,40,0.00,,---,0.01,962.00,VWS V14.01,2013-07-23 20:19:00,
2013-07-23 15:20:00,91.0,64.1,29.63,North,0,8.0,12.0,41,0.00,,---,0.01,955.00,VWS V14.01,2013-07-23 20:20:00,
2013-07-23 15:24:00,91.4,63.7,29.63,SW,219,6.0,13.0,40,0.00,,---,0.01,982.00,VWS V14.01,2013-07-23 20:24:00,
2013-07-23 15:25:00,91.6,63.9,29.63,NNW,347,11.0,13.0,40,0.00,,---,0.01,982.00,VWS V14.01,2013-07-23 20:25:00,
2013-07-23 15:30:00,92.1,63.6,29.62,NNW,332,13.0,16.0,39,0.00,,---,0.01,982.00,VWS V14.01,2013-07-23 20:30:00,
2013-07-23 15:35:00,92.1,62.1,29.62,North,352,5.0,12.0,37,0.00,,---,0.01,917.00,VWS V14.01,2013-07-23 20:35:00,
2013-07-23 15:40:00,92.1,62.9,29.62,South,182,1.0,12.0,38,0.00,,---,0.01,871.00,VWS V14.01,2013-07-23 20:40:00,
2013-07-23 15:45:00,92.3,63.8,29.62,North,353,7.0,12.0,39,0.00,,---,0.01,871.00,VWS V14.01,2013-07-23 20:45:00,
2013-07-23 15:50:00,92.5,64.0,29.62,ESE,102,3.0,7.0,39,0.00,,---,0.01,619.00,VWS V14.01,2013-07-23 20:50:00,
2013-07-23 15:55:00,92.5,64.7,29.62,North,354,5.0,8.0,40,0.00,,---,0.01,308.00,VWS V14.01,2013-07-23 20:55:00,
2013-07-23 16:00:00,91.8,63.3,29.61,NNW,330,6.0,12.0,39,0.00,,---,0.01,299.00,VWS V14.01,2013-07-23 21:00:00,
2013-07-23 16:05:00,91.6,63.9,29.61,NNW,346,5.0,11.0,40,0.00,,---,0.01,829.00,VWS V14.01,2013-07-23 21:05:00,
2013-07-23 16:10:00,91.8,64.1,29.61,NNW,347,7.0,7.0,40,0.00,,---,0.01,760.00,VWS V14.01,2013-07-23 21:10:00,
2013-07-23 16:15:00,92.3,63.0,29.61,East,89,8.0,11.0,38,0.00,,---,0.01,730.00,VWS V14.01,2013-07-23 21:15:00,
2013-07-23 16:16:00,92.3,62.3,29.61,North,0,9.0,9.0,37,0.00,,---,0.01,730.00,VWS V14.01,2013-07-23 21:16:00,
2013-07-23 16:20:00,92.3,63.0,29.61,WNW,295,7.0,12.0,38,0.00,,---,0.01,707.00,VWS V14.01,2013-07-23 21:20:00,
2013-07-23 16:21:00,92.3,63.0,29.61,North,0,8.0,8.0,38,0.00,,---,0.01,706.00,VWS V14.01,2013-07-23 21:21:00,
2013-07-23 16:25:00,92.5,62.5,29.61,North,0,11.0,11.0,37,0.00,,---,0.01,700.00,VWS V14.01,2013-07-23 21:25:00,
2013-07-23 16:26:00,92.7,62.6,29.61,West,267,8.0,11.0,37,0.00,,---,0.01,693.00,VWS V14.01,2013-07-23 21:26:00,
2013-07-23 16:30:00,92.9,63.6,29.61,SE,144,7.0,12.0,38,0.00,,---,0.01,676.00,VWS V14.01,2013-07-23 21:30:00,
2013-07-23 16:31:00,92.7,63.4,29.61,NNW,346,9.0,12.0,38,0.00,,---,0.01,676.00,VWS V14.01,2013-07-23 21:31:00,
2013-07-23 16:35:00,92.7,63.4,29.61,North,0,6.0,12.0,38,0.00,,---,0.01,665.00,VWS V14.01,2013-07-23 21:35:00,
2013-07-23 16:37:00,92.7,63.4,29.61,SE,131,4.0,8.0,38,0.00,,---,0.01,658.00,VWS V14.01,2013-07-23 21:37:00,
2013-07-23 16:40:00,92.9,63.6,29.61,ESE,112,10.0,11.0,38,0.00,,---,0.01,662.00,VWS V14.01,2013-07-23 21:40:00,
2013-07-23 16:42:00,92.9,65.0,29.61,NW,309,10.0,11.0,40,0.00,,---,0.01,658.00,VWS V14.01,2013-07-23 21:42:00,
2013-07-23 16:45:00,92.7,64.1,29.60,WNW,295,6.0,12.0,39,0.00,,---,0.01,648.00,VWS V14.01,2013-07-23 21:45:00,
2013-07-23 16:47:00,92.7,64.9,29.60,North,0,11.0,11.0,40,0.00,,---,0.01,637.00,VWS V14.01,2013-07-23 21:47:00,
2013-07-23 16:50:00,92.5,65.4,29.60,North,353,11.0,12.0,41,0.00,,---,0.01,635.00,VWS V14.01,2013-07-23 21:50:00,
2013-07-23 16:52:00,92.5,64.7,29.60,NNW,347,11.0,13.0,40,0.00,,---,0.01,628.00,VWS V14.01,2013-07-23 21:52:00,
2013-07-23 16:55:00,91.8,64.8,29.60,North,0,13.0,17.0,41,0.00,,---,0.01,616.00,VWS V14.01,2013-07-23 21:55:00,
2013-07-23 16:58:00,91.4,64.4,29.60,NNW,343,16.0,16.0,41,0.00,,---,0.01,614.00,VWS V14.01,2013-07-23 21:58:00,
2013-07-23 17:00:00,91.2,64.2,29.61,SSW,208,8.0,16.0,41,0.00,,---,0.01,609.00,VWS V14.01,2013-07-23 22:00:00,
2013-07-23 17:03:00,91.2,64.2,29.61,NW,323,13.0,14.0,41,0.00,,---,0.01,602.00,VWS V14.01,2013-07-23 22:03:00,
2013-07-23 17:05:00,91.2,63.5,29.61,North,0,6.0,14.0,40,0.00,,---,0.01,604.00,VWS V14.01,2013-07-23 22:05:00,
2013-07-23 17:08:00,91.4,63.0,29.61,East,89,7.0,13.0,39,0.00,,---,0.01,600.00,VWS V14.01,2013-07-23 22:08:00,
2013-07-23 17:10:00,91.4,63.0,29.61,North,354,8.0,13.0,39,0.00,,---,0.01,591.00,VWS V14.01,2013-07-23 22:10:00,
2013-07-23 17:13:00,91.4,62.2,29.61,NNW,328,10.0,14.0,38,0.00,,---,0.01,577.00,VWS V14.01,2013-07-23 22:13:00,
2013-07-23 17:15:00,91.6,63.2,29.60,North,0,10.0,14.0,39,0.00,,---,0.01,575.00,VWS V14.01,2013-07-23 22:15:00,
2013-07-23 17:18:00,91.8,62.6,29.60,WSW,243,11.0,13.0,38,0.00,,---,0.01,577.00,VWS V14.01,2013-07-23 22:18:00,
2013-07-23 17:20:00,91.6,62.4,29.60,ENE,71,11.0,13.0,38,0.00,,---,0.01,572.00,VWS V14.01,2013-07-23 22:20:00,
2013-07-23 17:24:00,91.6,63.2,29.60,SW,232,5.0,13.0,39,0.00,,---,0.01,561.00,VWS V14.01,2013-07-23 22:24:00,
2013-07-23 17:25:00,91.8,64.1,29.60,North,0,10.0,13.0,40,0.00,,---,0.01,588.00,VWS V14.01,2013-07-23 22:25:00,
2013-07-23 17:29:00,91.6,64.6,29.60,North,359,8.0,12.0,41,0.00,,---,0.01,128.00,VWS V14.01,2013-07-23 22:29:00,
2013-07-23 17:30:00,91.4,64.4,29.60,North,353,10.0,13.0,41,0.00,,---,0.01,127.00,VWS V14.01,2013-07-23 22:30:00,
2013-07-23 17:34:00,90.1,65.3,29.60,North,354,14.0,17.0,44,0.00,,---,0.01,113.00,VWS V14.01,2013-07-23 22:34:00,
2013-07-23 17:35:00,89.7,64.9,29.60,North,0,9.0,17.0,44,0.00,,---,0.01,107.00,VWS V14.01,2013-07-23 22:35:00,
2013-07-23 17:40:00,88.6,66.4,29.60,North,352,11.0,19.0,48,0.00,,---,0.01,91.00,VWS V14.01,2013-07-23 22:40:00,
2013-07-23 17:45:00,86.7,67.0,29.62,North,0,12.0,17.0,52,0.00,,---,0.01,67.00,VWS V14.01,2013-07-23 22:45:00,
2013-07-23 17:50:00,85.5,67.0,29.62,NNW,346,14.0,20.0,54,0.00,,---,0.01,46.00,VWS V14.01,2013-07-23 22:50:00,
2013-07-23 17:55:00,84.5,66.6,29.62,North,0,17.0,18.0,55,0.00,,---,0.01,33.00,VWS V14.01,2013-07-23 22:55:00,
2013-07-23 18:00:00,83.6,66.3,29.60,North,0,16.0,22.0,56,0.00,,---,0.01,26.00,VWS V14.01,2013-07-23 23:00:00,
2013-07-23 18:05:00,82.4,65.7,29.60,North,359,14.0,14.0,57,0.00,,---,0.01,25.00,VWS V14.01,2013-07-23 23:05:00,
2013-07-23 18:10:00,81.8,65.1,29.60,WSW,246,13.0,14.0,57,0.00,,---,0.01,16.00,VWS V14.01,2013-07-23 23:10:00,
2013-07-23 18:15:00,81.8,65.1,29.60,North,0,8.0,8.0,57,0.00,,---,0.01,12.00,VWS V14.01,2013-07-23 23:15:00,
2013-07-23 18:20:00,81.6,64.9,29.60,North,0,13.0,16.0,57,0.00,,---,0.01,12.00,VWS V14.01,2013-07-23 23:20:00,
2013-07-23 18:21:00,81.4,64.7,29.60,NNW,343,13.0,17.0,57,0.00,,---,0.01,12.00,VWS V14.01,2013-07-23 23:21:00,
2013-07-23 18:25:00,81.1,64.4,29.60,North,0,10.0,17.0,57,0.00,,---,0.01,5.00,VWS V14.01,2013-07-23 23:25:00,
2013-07-23 18:26:00,81.1,64.9,29.60,NW,312,12.0,14.0,58,0.00,,---,0.01,5.00,VWS V14.01,2013-07-23 23:26:00,
2013-07-23 18:30:00,80.9,64.2,29.61,NNW,342,12.0,14.0,57,0.00,,---,0.01,0.00,VWS V14.01,2013-07-23 23:30:00,
2013-07-23 18:31:00,80.9,63.8,29.61,North,354,9.0,13.0,56,0.00,,---,0.01,0.00,VWS V14.01,2013-07-23 23:31:00,
2013-07-23 18:35:00,80.7,63.6,29.61,North,0,10.0,16.0,56,0.00,,---,0.01,0.00,VWS V14.01,2013-07-23 23:35:00,
2013-07-23 18:37:00,80.7,63.6,29.61,North,350,12.0,13.0,56,0.00,,---,0.01,0.00,VWS V14.01,2013-07-23 23:37:00,
2013-07-23 18:40:00,80.7,63.6,29.61,North,0,13.0,13.0,56,0.00,,---,0.01,5.00,VWS V14.01,2013-07-23 23:40:00,
2013-07-23 18:42:00,80.7,63.0,29.61,North,0,11.0,13.0,55,0.00,,---,0.01,5.00,VWS V14.01,2013-07-23 23:42:00,
2013-07-23 18:45:00,80.3,63.2,29.61,NNW,344,11.0,14.0,56,0.00,,---,0.01,0.00,VWS V14.01,2013-07-23 23:45:00,
2013-07-23 18:47:00,80.3,63.2,29.61,North,0,12.0,12.0,56,0.00,,---,0.01,0.00,VWS V14.01,2013-07-23 23:47:00,
2013-07-23 18:52:00,80.1,63.5,29.61,North,0,13.0,14.0,57,0.00,,---,0.01,5.00,VWS V14.01,2013-07-23 23:52:00,
2013-07-23 18:55:00,79.9,63.3,29.61,NNW,340,13.0,14.0,57,0.00,,---,0.01,5.00,VWS V14.01,2013-07-23 23:55:00,
2013-07-23 18:57:00,79.9,63.3,29.61,North,352,12.0,14.0,57,0.00,,---,0.01,0.00,VWS V14.01,2013-07-23 23:57:00,
2013-07-23 19:00:00,79.8,63.7,29.58,North,0,12.0,17.0,58,0.00,,---,0.01,0.00,VWS V14.01,2013-07-24 00:00:00,
2013-07-23 19:02:00,79.4,64.3,29.58,North,0,15.0,17.0,60,0.00,,---,0.01,0.00,VWS V14.01,2013-07-24 00:02:00,
2013-07-23 19:05:00,78.8,64.7,29.58,North,353,16.0,17.0,62,0.00,,---,0.01,0.00,VWS V14.01,2013-07-24 00:05:00,
2013-07-23 19:07:00,78.5,64.4,29.58,North,0,7.0,16.0,62,0.00,,---,0.01,0.00,VWS V14.01,2013-07-24 00:07:00,
2013-07-23 19:10:00,78.5,64.4,29.58,North,354,2.0,16.0,62,0.00,,---,0.01,0.00,VWS V14.01,2013-07-24 00:10:00,
2013-07-23 19:12:00,78.5,64.4,29.58,North,353,6.0,6.0,62,0.00,,---,0.01,0.00,VWS V14.01,2013-07-24 00:12:00,
2013-07-23 19:15:00,78.5,63.9,29.63,WSW,244,7.0,10.0,61,0.00,,---,0.01,0.00,VWS V14.01,2013-07-24 00:15:00,
2013-07-23 19:18:00,78.6,64.5,29.63,NNW,332,5.0,10.0,62,0.00,,---,0.01,0.00,VWS V14.01,2013-07-24 00:18:00,
2013-07-23 19:20:00,78.6,64.5,29.63,West,278,8.0,10.0,62,0.00,,---,0.01,0.00,VWS V14.01,2013-07-24 00:20:00,
2013-07-23 19:24:00,78.6,64.5,29.63,North,0,10.0,14.0,62,0.00,,---,0.01,0.00,VWS V14.01,2013-07-24 00:24:00,
2013-07-23 19:25:00,78.6,64.5,29.63,North,359,11.0,14.0,62,0.00,,---,0.01,0.00,VWS V14.01,2013-07-24 00:25:00,
2013-07-23 19:29:00,78.3,64.7,29.63,NNW,346,14.0,15.0,63,0.00,,---,0.01,0.00,VWS V14.01,2013-07-24 00:29:00,
2013-07-23 19:30:00,78.3,64.7,29.59,North,0,17.0,17.0,63,0.00,,---,0.01,0.00,VWS V14.01,2013-07-24 00:30:00,
2013-07-23 19:34:00,78.3,64.7,29.59,NNW,347,6.0,17.0,63,0.00,,---,0.01,0.00,VWS V14.01,2013-07-24 00:34:00,
2013-07-23 19:35:00,78.3,64.7,29.59,NNW,346,7.0,17.0,63,0.00,,---,0.01,0.00,VWS V14.01,2013-07-24 00:35:00,
2013-07-23 19:39:00,78.3,64.7,29.59,NE,34,3.0,7.0,63,0.00,,---,0.01,5.00,VWS V14.01,2013-07-24 00:39:00,
2013-07-23 19:40:00,78.3,64.7,29.59,North,359,0.0,7.0,63,0.00,,---,0.01,5.00,VWS V14.01,2013-07-24 00:40:00,
2013-07-23 19:44:00,78.5,65.3,29.59,East,93,11.0,11.0,64,0.00,,---,0.01,12.00,VWS V14.01,2013-07-24 00:44:00,
2013-07-23 19:45:00,78.5,65.3,29.62,NNW,343,11.0,11.0,64,0.00,,---,0.01,12.00,VWS V14.01,2013-07-24 00:45:00,
2013-07-23 19:49:00,78.3,65.6,29.62,NW,320,7.0,13.0,65,0.00,,---,0.01,21.00,VWS V14.01,2013-07-24 00:49:00,
2013-07-23 19:54:00,78.3,65.6,29.62,SE,145,3.0,10.0,65,0.00,,---,0.01,18.00,VWS V14.01,2013-07-24 00:54:00,
2013-07-23 19:55:00,78.3,65.6,29.62,NNW,340,6.0,10.0,65,0.00,,---,0.01,18.00,VWS V14.01,2013-07-24 00:55:00,
2013-07-23 20:00:00,78.3,66.0,29.64,NNW,347,8.0,11.0,66,0.00,,---,0.01,26.00,VWS V14.01,2013-07-24 01:00:00,
2013-07-23 20:05:00,78.1,66.3,29.64,North,350,11.0,12.0,67,0.00,,---,0.01,33.00,VWS V14.01,2013-07-24 01:05:00,
2013-07-23 20:10:00,78.1,66.3,29.64,North,0,10.0,13.0,67,0.00,,---,0.01,32.00,VWS V14.01,2013-07-24 01:10:00,
2013-07-23 20:15:00,77.9,66.5,29.65,WNW,292,6.0,12.0,68,0.00,,---,0.01,16.00,VWS V14.01,2013-07-24 01:15:00,
2013-07-23 20:20:00,77.9,66.5,29.65,West,280,8.0,13.0,68,0.00,,---,0.01,12.00,VWS V14.01,2013-07-24 01:20:00,
2013-07-23 20:25:00,77.7,66.7,29.65,North,0,7.0,7.0,69,0.00,,---,0.01,12.00,VWS V14.01,2013-07-24 01:25:00,
2013-07-23 20:30:00,77.7,67.1,29.65,North,349,11.0,12.0,70,0.00,,---,0.01,9.00,VWS V14.01,2013-07-24 01:30:00,
2013-07-23 20:31:00,77.7,67.1,29.65,ESE,117,13.0,13.0,70,0.00,,---,0.01,9.00,VWS V14.01,2013-07-24 01:31:00,
2013-07-23 20:35:00,77.7,67.1,29.65,WNW,298,12.0,18.0,70,0.00,,---,0.01,7.00,VWS V14.01,2013-07-24 01:35:00,
2013-07-23 20:36:00,77.7,67.1,29.65,NW,311,12.0,13.0,70,0.00,,---,0.01,0.00,VWS V14.01,2013-07-24 01:36:00,
2013-07-23 20:40:00,77.6,67.9,29.65,North,350,10.0,14.0,72,0.00,,---,0.01,7.00,VWS V14.01,2013-07-24 01:40:00,
2013-07-23 20:41:00,77.6,67.9,29.65,North,0,12.0,14.0,72,0.00,,---,0.01,7.00,VWS V14.01,2013-07-24 01:41:00,
2013-07-23 20:45:00,77.6,67.9,29.63,WSW,251,13.0,14.0,72,0.00,,---,0.01,7.00,VWS V14.01,2013-07-24 01:45:00,
2013-07-23 20:46:00,77.6,67.9,29.63,North,357,10.0,14.0,72,0.00,,---,0.01,7.00,VWS V14.01,2013-07-24 01:46:00,
2013-07-23 20:50:00,77.6,67.9,29.63,NNW,346,13.0,16.0,72,0.00,,---,0.01,0.00,VWS V14.01,2013-07-24 01:50:00,
2013-07-23 20:51:00,77.6,67.9,29.63,NNW,344,16.0,16.0,72,0.00,,---,0.01,0.00,VWS V14.01,2013-07-24 01:51:00,
2013-07-23 20:55:00,77.4,68.1,29.63,ENE,62,12.0,16.0,73,0.00,,---,0.01,0.00,VWS V14.01,2013-07-24 01:55:00,
2013-07-23 20:57:00,77.4,68.1,29.63,NW,319,11.0,14.0,73,0.00,,---,0.01,0.00,VWS V14.01,2013-07-24 01:57:00,
2013-07-23 21:00:00,77.4,68.1,29.63,South,181,11.0,17.0,73,0.00,,---,0.01,0.00,VWS V14.01,2013-07-24 02:00:00,
2013-07-23 21:02:00,77.2,68.3,29.63,SSW,192,10.0,16.0,74,0.00,,---,0.01,0.00,VWS V14.01,2013-07-24 02:02:00,
2013-07-23 21:05:00,77.2,68.3,29.63,North,350,12.0,16.0,74,0.00,,---,0.01,0.00,VWS V14.01,2013-07-24 02:05:00,
2013-07-23 21:08:00,77.2,68.3,29.63,NNW,333,9.0,12.0,74,0.00,,---,0.01,0.00,VWS V14.01,2013-07-24 02:08:00,
2013-07-23 21:10:00,77.2,68.3,29.63,North,0,10.0,13.0,74,0.00,,---,0.01,0.00,VWS V14.01,2013-07-24 02:10:00,
2013-07-23 21:13:00,77.2,68.3,29.63,NNW,343,6.0,10.0,74,0.00,,---,0.01,0.00,VWS V14.01,2013-07-24 02:13:00,
2013-07-23 21:15:00,77.2,68.3,29.64,WSW,243,4.0,10.0,74,0.00,,---,0.01,0.00,VWS V14.01,2013-07-24 02:15:00,
2013-07-23 21:18:00,77.2,68.3,29.64,North,0,5.0,10.0,74,0.00,,---,0.01,0.00,VWS V14.01,2013-07-24 02:18:00,
2013-07-23 21:20:00,77.2,68.3,29.64,North,0,6.0,10.0,74,0.00,,---,0.01,0.00,VWS V14.01,2013-07-24 02:20:00,
2013-07-23 21:23:00,77.0,68.1,29.64,WNW,295,8.0,11.0,74,0.00,,---,0.01,0.00,VWS V14.01,2013-07-24 02:23:00,
2013-07-23 21:25:00,77.0,68.5,29.64,NNW,347,6.0,11.0,75,0.00,,---,0.01,0.00,VWS V14.01,2013-07-24 02:25:00,
2013-07-23 21:28:00,77.0,68.5,29.64,North,357,7.0,10.0,75,0.00,,---,0.01,0.00,VWS V14.01,2013-07-24 02:28:00,
2013-07-23 21:30:00,77.0,68.5,29.64,North,0,10.0,11.0,75,0.00,,---,0.01,0.00,VWS V14.01,2013-07-24 02:30:00,
2013-07-23 21:33:00,77.0,68.5,29.64,West,281,9.0,12.0,75,0.00,,---,0.01,0.00,VWS V14.01,2013-07-24 02:33:00,
2013-07-23 21:35:00,76.8,68.3,29.64,WSW,257,11.0,12.0,75,0.00,,---,0.01,0.00,VWS V14.01,2013-07-24 02:35:00,
2013-07-23 21:38:00,76.8,68.3,29.64,North,0,14.0,14.0,75,0.00,,---,0.01,0.00,VWS V14.01,2013-07-24 02:38:00,
2013-07-23 21:40:00,76.8,68.3,29.64,North,357,11.0,14.0,75,0.00,,---,0.01,0.00,VWS V14.01,2013-07-24 02:40:00,
2013-07-23 21:43:00,76.7,68.2,29.64,North,0,11.0,11.0,75,0.00,,---,0.01,0.00,VWS V14.01,2013-07-24 02:43:00,
2013-07-23 21:45:00,76.7,68.2,29.65,North,0,13.0,14.0,75,0.00,,---,0.01,0.00,VWS V14.01,2013-07-24 02:45:00,
2013-07-23 21:49:00,76.7,68.2,29.65,North,0,10.0,13.0,75,0.00,,---,0.01,0.00,VWS V14.01,2013-07-24 02:49:00,
2013-07-23 21:50:00,76.7,68.2,29.65,North,0,9.0,13.0,75,0.00,,---,0.01,0.00,VWS V14.01,2013-07-24 02:50:00,
2013-07-23 21:54:00,76.7,68.2,29.65,North,0,8.0,13.0,75,0.00,,---,0.01,0.00,VWS V14.01,2013-07-24 02:54:00,
2013-07-23 21:55:00,76.7,68.2,29.65,North,357,10.0,13.0,75,0.00,,---,0.01,0.00,VWS V14.01,2013-07-24 02:55:00,
2013-07-23 21:59:00,76.5,68.0,29.65,North,350,12.0,17.0,75,0.00,,---,0.01,0.00,VWS V14.01,2013-07-24 02:59:00,
2013-07-23 22:00:00,76.5,68.0,29.67,NNW,346,11.0,17.0,75,0.00,,---,0.01,0.00,VWS V14.01,2013-07-24 03:00:00,
2013-07-23 22:04:00,76.3,67.8,29.67,NNW,346,12.0,14.0,75,0.00,,---,0.01,0.00,VWS V14.01,2013-07-24 03:04:00,
2013-07-23 22:05:00,76.1,67.6,29.67,North,0,12.0,18.0,75,0.00,,---,0.01,0.00,VWS V14.01,2013-07-24 03:05:00,
2013-07-23 22:09:00,76.0,67.5,29.67,North,359,14.0,17.0,75,0.00,,---,0.01,0.00,VWS V14.01,2013-07-24 03:09:00,
2013-07-23 22:10:00,76.0,67.5,29.67,North,357,11.0,17.0,75,0.00,,---,0.01,0.00,VWS V14.01,2013-07-24 03:10:00,
2013-07-23 22:15:00,75.6,67.1,29.68,North,0,16.0,19.0,75,0.00,,---,0.01,0.00,VWS V14.01,2013-07-24 03:15:00,
2013-07-23 22:20:00,75.4,66.9,29.68,NNW,339,13.0,18.0,75,0.00,,---,0.01,0.00,VWS V14.01,2013-07-24 03:20:00,
2013-07-23 22:25:00,75.3,66.8,29.68,North,352,12.0,20.0,75,0.00,,---,0.01,0.00,VWS V14.01,2013-07-24 03:25:00,
2013-07-23 22:30:00,75.3,67.2,29.69,NNW,344,16.0,16.0,76,0.00,,---,0.01,0.00,VWS V14.01,2013-07-24 03:30:00,
2013-07-23 22:35:00,75.1,67.0,29.69,North,0,13.0,16.0,76,0.00,,---,0.01,0.00,VWS V14.01,2013-07-24 03:35:00,
2013-07-23 22:40:00,74.9,67.2,29.69,North,354,16.0,16.0,77,0.00,,---,0.01,0.00,VWS V14.01,2013-07-24 03:40:00,
2013-07-23 22:45:00,74.6,67.3,29.69,North,356,11.0,16.0,78,0.00,,---,0.01,0.00,VWS V14.01,2013-07-24 03:45:00,
2013-07-23 22:46:00,74.6,67.3,29.69,North,352,10.0,12.0,78,0.00,,---,0.01,0.00,VWS V14.01,2013-07-24 03:46:00,
2013-07-23 22:50:00,74.4,67.1,29.69,North,0,10.0,13.0,78,0.00,,---,0.01,0.00,VWS V14.01,2013-07-24 03:50:00,
2013-07-23 22:51:00,74.4,67.1,29.69,North,352,8.0,10.0,78,0.00,,---,0.01,0.00,VWS V14.01,2013-07-24 03:51:00,
2013-07-23 22:55:00,74.2,66.9,29.69,WNW,296,5.0,13.0,78,0.00,,---,0.01,0.00,VWS V14.01,2013-07-24 03:55:00,
2013-07-23 22:57:00,74.2,67.3,29.69,North,352,9.0,12.0,79,0.00,,---,0.01,0.00,VWS V14.01,2013-07-24 03:57:00,
2013-07-23 23:00:00,74.0,67.1,29.69,SW,227,7.0,12.0,79,0.00,,---,0.01,0.00,VWS V14.01,2013-07-24 04:00:00,
2013-07-23 23:01:00,74.0,67.1,29.69,North,357,11.0,11.0,79,0.00,,---,0.01,0.00,VWS V14.01,2013-07-24 04:01:00,
2013-07-23 23:02:00,74.0,67.1,29.69,North,0,6.0,11.0,79,0.00,,---,0.01,0.00,VWS V14.01,2013-07-24 04:02:00,
2013-07-23 23:03:00,73.9,67.0,29.69,North,349,9.0,13.0,79,0.00,,---,0.01,0.00,VWS V14.01,2013-07-24 04:03:00,
2013-07-23 23:05:00,73.9,67.0,29.69,North,352,7.0,13.0,79,0.00,,---,0.01,0.00,VWS V14.01,2013-07-24 04:05:00,
2013-07-23 23:06:00,73.9,67.0,29.69,North,0,11.0,11.0,79,0.00,,---,0.01,0.00,VWS V14.01,2013-07-24 04:06:00,
2013-07-23 23:10:00,73.5,66.6,29.69,North,0,7.0,11.0,79,0.00,,---,0.01,0.00,VWS V14.01,2013-07-24 04:10:00,
2013-07-23 23:11:00,73.5,66.6,29.69,North,0,6.0,8.0,79,0.00,,---,0.01,0.00,VWS V14.01,2013-07-24 04:11:00,
2013-07-23 23:15:00,73.3,66.8,29.69,NNW,347,11.0,11.0,80,0.00,,---,0.01,0.00,VWS V14.01,2013-07-24 04:15:00,
2013-07-23 23:16:00,73.3,66.8,29.69,NNW,343,11.0,12.0,80,0.00,,---,0.01,0.00,VWS V14.01,2013-07-24 04:16:00,
2013-07-23 23:20:00,73.0,66.5,29.69,North,0,8.0,16.0,80,0.00,,---,0.01,0.00,VWS V14.01,2013-07-24 04:20:00,
2013-07-23 23:21:00,73.0,66.5,29.69,WNW,284,11.0,16.0,80,0.00,,---,0.01,0.00,VWS V14.01,2013-07-24 04:21:00,
2013-07-23 23:25:00,72.8,66.6,29.69,NW,318,14.0,16.0,81,0.00,,---,0.01,0.00,VWS V14.01,2013-07-24 04:25:00,
2013-07-23 23:26:00,72.8,66.6,29.69,North,0,14.0,14.0,81,0.00,,---,0.01,0.00,VWS V14.01,2013-07-24 04:26:00,
2013-07-23 23:30:00,72.8,66.6,29.69,North,359,15.0,16.0,81,0.00,,---,0.01,0.00,VWS V14.01,2013-07-24 04:30:00,
2013-07-23 23:31:00,72.7,66.5,29.69,NNW,344,12.0,15.0,81,0.00,,---,0.01,0.00,VWS V14.01,2013-07-24 04:31:00,
2013-07-23 23:35:00,72.7,66.5,29.69,North,357,11.0,17.0,81,0.00,,---,0.01,0.00,VWS V14.01,2013-07-24 04:35:00,
2013-07-23 23:36:00,72.7,66.5,29.69,North,0,11.0,14.0,81,0.00,,---,0.01,0.00,VWS V14.01,2013-07-24 04:36:00,
2013-07-23 23:40:00,72.5,66.7,29.69,North,349,10.0,16.0,82,0.00,,---,0.01,0.00,VWS V14.01,2013-07-24 04:40:00,
2013-07-23 23:41:00,72.5,66.7,29.69,North,350,13.0,14.0,82,0.00,,---,0.01,0.00,VWS V14.01,2013-07-24 04:41:00,
2013-07-23 23:45:00,72.5,66.7,29.69,WSW,244,11.0,18.0,82,0.00,,---,0.01,0.00,VWS V14.01,2013-07-24 04:45:00,
2013-07-23 23:46:00,72.3,66.5,29.69,North,0,10.0,11.0,82,0.00,,---,0.01,0.00,VWS V14.01,2013-07-24 04:46:00,
2013-07-23 23:50:00,72.3,66.8,29.69,North,0,10.0,14.0,83,0.00,,---,0.01,0.00,VWS V14.01,2013-07-24 04:50:00,
2013-07-23 23:51:00,72.3,66.8,29.69,North,0,15.0,16.0,83,0.00,,---,0.01,0.00,VWS V14.01,2013-07-24 04:51:00,
2013-07-23 23:55:00,72.1,66.7,29.69,North,350,10.0,16.0,83,0.00,,---,0.01,0.00,VWS V14.01,2013-07-24 04:55:00,
2013-07-23 23:57:00,72.1,66.7,29.69,North,357,12.0,14.0,83,0.00,,---,0.01,0.00,VWS V14.01,2013-07-24 04:57:00,